SPACEBEE-97 (48936 NORAD) Tracking and Keplerian Element Data

This shows tracking and keplerian element data for the satellite.

Feedback or suggestion? Click here.




ElementValue
Catalog48936
NameSPACEBEE-97
Epoch Orbit1389
Epoch Day268.61881627
Epoch Year2021
RAAN36.2908
Inclination97.5201
Eccentricity0.0016269
Argument of Perigee300.047
Mean Anonmoly59.9148
Mean Motion15.14613003
Decay Rate7.301E-05
L11 48936U 21059BK 21268.61881627 .00007301 00000-0 39756-3 0 9999
L22 48936 97.5201 36.2908 0016269 300.0470 59.9148 15.14613003 13893

Live tracking and technical data element details for SPACEBEE-97 (NORAD 48936). SPACEBEE-97 can be tracked NOW for your location showing map with azimuth and elevation plus other details from your city location.

Track the satellite on the map from your city or location and see movement details for azimuth, elevation, latitude, longitude, range, height, and movement on the map or in text.







IsCatalogInMostPopularTable: catalog: 48936, numindb: 14
Update: records affected: 1



GetName: 48936 SPACEBEE-97

Hit Count: updated at: Sun, 26 Sep 2021 15:48:00 GMT